DW8947 Weather Reports


Display with metric or nautical units.
time (UTC)temp
F
wind
direction
speed
MPH
gust
MPH
rain 1hr
in
rain 24hr
in
rain mn
in
humidity
%
barometer
mb
20210619035638 60 110 0.0 1.0 0.00 0.00 0.00 84 1016.8
20210619035138 60 113 0.0 0.0 0.00 0.00 0.00 83 1016.8
20210619034638 60 113 0.0 3.0 0.00 0.00 0.00 82 1016.9
20210619034138 60 162 0.0 1.0 0.00 0.00 0.00 81 1016.9
20210619033638 60 162 0.0 2.0 0.00 0.00 0.00 80 1016.9
20210619033138 61 162 0.0 1.0 0.00 0.00 0.00 80 1016.9
20210619032639 61 162 0.0 1.0 0.00 0.00 0.00 79 1016.8
20210619032138 61 162 0.0 1.0 0.00 0.00 0.00 78 1016.8
20210619031638 61 162 0.0 3.0 0.00 0.00 0.00 78 1016.8
20210619031139 62 161 0.0 3.0 0.00 0.00 0.00 78 1016.8
20210619030638 62 160 0.0 1.0 0.00 0.00 0.00 77 1016.8
20210619030138 62 162 0.0 1.0 0.00 0.00 0.00 76 1016.8
20210619025638 63 162 0.0 0.0 0.00 0.00 0.00 76 1016.9
20210619025138 63 162 0.0 0.0 0.00 0.00 0.00 76 1016.9
20210619024638 63 162 0.0 1.0 0.00 0.00 0.00 76 1016.8
20210619024138 63 162 0.0 2.0 0.00 0.00 0.00 75 1016.8
20210619023639 63 163 0.0 1.0 0.00 0.00 0.00 75 1016.8
20210619023139 64 163 0.0 2.0 0.00 0.00 0.00 75 1016.8
20210619022639 64 163 0.0 1.0 0.00 0.00 0.00 74 1016.8
20210619022138 64 163 0.0 2.0 0.00 0.00 0.00 75 1016.8
20210619021638 64 163 0.0 1.0 0.00 0.00 0.00 75 1016.7
20210619021139 64 163 0.0 1.0 0.00 0.00 0.00 74 1016.7
20210619020638 65 163 0.0 3.0 0.00 0.00 0.00 74 1016.8
20210619020139 65 191 0.0 2.0 0.00 0.00 0.00 73 1016.8
20210619015638 65 190 0.0 1.0 0.00 0.00 0.00 73 1016.8
20210619015139 65 190 0.0 2.0 0.00 0.00 0.00 73 1016.8
20210619014639 65 189 0.0 2.0 0.00 0.00 0.00 70 1016.8
20210619014138 65 189 0.0 2.0 0.00 0.00 0.00 71 1016.8
20210619013638 65 260 0.0 1.0 0.00 0.00 0.00 71 1016.9
20210619013139 65 260 0.0 1.0 0.00 0.00 0.00 70 1016.9
20210619012638 65 260 0.0 1.0 0.00 0.00 0.00 70 1016.9
20210619012138 65 260 0.0 1.0 0.00 0.00 0.00 71 1017.0
20210619011640 65 260 0.0 1.0 0.00 0.00 0.00 68 1016.9
20210619011138 66 260 0.0 1.0 0.00 0.00 0.00 69 1017.0
20210619010140 66 260 0.0 3.0 0.00 0.00 0.00 67 1017.0
20210619005640 66 259 0.0 1.0 0.00 0.00 0.00 68 1017.1
20210619005140 66 261 0.0 2.0 0.00 0.00 0.00 68 1017.1
20210619004639 66 325 1.0 7.0 0.00 0.00 0.00 66 1017.0
20210619004138 66 240 0.0 2.0 0.00 0.00 0.00 67 1017.1
20210619003639 67 82 0.0 2.0 0.00 0.00 0.00 65 1017.0
20210619003139 67 115 0.0 3.0 0.00 0.00 0.00 64 1017.1
20210619002639 67 101 0.0 2.0 0.00 0.00 0.00 63 1017.1
20210619002139 67 122 0.0 2.0 0.00 0.00 0.00 62 1017.1
20210619001639 67 111 0.0 2.0 0.00 0.00 0.00 62 1017.1
20210619001139 67 91 0.0 3.0 0.00 0.00 0.00 60 1017.1
20210619000639 68 97 1.0 3.0 0.00 0.00 0.00 61 1017.1
20210619000142 68 151 0.0 3.0 0.00 0.00 0.00 63 1017.1
20210618235639 68 146 0.0 3.0 0.00 0.00 0.00 62 1017.1
20210618235141 68 155 0.0 3.0 0.00 0.00 0.00 61 1017.2
20210618234640 68 147 1.0 3.0 0.00 0.00 0.00 60 1017.2
20210618234140 68 142 0.0 2.0 0.00 0.00 0.00 60 1017.2
20210618233639 68 148 0.0 2.0 0.00 0.00 0.00 60 1017.2
20210618233139 68 125 1.0 3.0 0.00 0.00 0.00 60 1017.3
20210618232639 68 150 1.0 3.0 0.00 0.00 0.00 64 1017.2
20210618232140 68 142 0.0 3.0 0.00 0.00 0.00 64 1017.3
20210618231640 68 153 1.0 3.0 0.00 0.00 0.00 63 1017.3
20210618231139 68 131 1.0 3.0 0.00 0.00 0.00 63 1017.3
20210618230641 69 113 1.0 5.0 0.00 0.00 0.00 62 1017.3
20210618230139 69 246 0.0 3.0 0.00 0.00 0.00 61 1017.4
20210618225639 70 194 0.0 1.0 0.00 0.00 0.00 60 1017.4
20210618225141 71 194 1.0 3.0 0.00 0.00 0.00 61 1017.4
20210618224640 71 126 1.0 3.0 0.00 0.00 0.00 59 1017.4
20210618224141 71 137 1.0 3.0 0.00 0.00 0.00 60 1017.5
20210618223639 71 123 1.0 3.0 0.00 0.00 0.00 60 1017.5
20210618223140 71 202 1.0 3.0 0.00 0.00 0.00 59 1017.5
20210618222640 71 281 1.0 3.0 0.00 0.00 0.00 60 1017.6
20210618222142 70 265 0.0 2.0 0.00 0.00 0.00 60 1017.7
20210618221642 71 303 1.0 5.0 0.00 0.00 0.00 58 1017.7
20210618221142 71 180 1.0 3.0 0.00 0.00 0.00 58 1017.7
20210618220641 71 189 1.0 2.0 0.00 0.00 0.00 60 1017.8
20210618220140 71 214 1.0 3.0 0.00 0.00 0.00 58 1017.8
20210618215640 71 214 0.0 3.0 0.00 0.00 0.00 58 1017.8
20210618215140 71 164 1.0 3.0 0.00 0.00 0.00 58 1017.8
20210618214640 71 218 1.0 3.0 0.00 0.00 0.00 60 1017.8
20210618214140 71 324 1.0 3.0 0.00 0.00 0.00 57 1017.8
20210618213639 71 145 1.0 3.0 0.00 0.00 0.00 57 1017.9
20210618213139 71 210 1.0 5.0 0.00 0.00 0.00 57 1018.0
20210618212639 71 158 1.0 6.0 0.00 0.00 0.00 58 1018.0
20210618212140 71 286 1.0 2.0 0.00 0.00 0.00 57 1018.0
20210618211639 71 292 1.0 5.0 0.00 0.00 0.00 58 1018.1
20210618211140 71 209 1.0 6.0 0.00 0.00 0.00 58 1018.1
20210618210640 71 156 0.0 3.0 0.00 0.00 0.00 60 1018.1
20210618210140 70 262 1.0 5.0 0.00 0.00 0.00 60 1018.2
20210618205639 70 153 1.0 5.0 0.00 0.00 0.00 61 1018.3
20210618205140 69 53 0.0 5.0 0.00 0.00 0.00 62 1018.3
20210618204640 69 199 1.0 3.0 0.00 0.00 0.00 60 1018.3
20210618204140 70 217 1.0 3.0 0.00 0.00 0.00 60 1018.3
20210618203639 70 222 1.0 3.0 0.00 0.00 0.00 60 1018.3
20210618203140 70 255 1.0 7.0 0.00 0.00 0.00 62 1018.3
20210618202640 69 306 0.0 5.0 0.00 0.00 0.00 62 1018.4
20210618202139 69 171 0.0 7.0 0.00 0.00 0.00 62 1018.3
20210618201640 70 150 0.0 3.0 0.00 0.00 0.00 62 1018.4
20210618201139 69 300 1.0 3.0 0.00 0.00 0.00 60 1018.5
20210618200640 69 138 0.0 5.0 0.00 0.00 0.00 63 1018.5
20210618200140 69 116 1.0 6.0 0.00 0.00 0.00 62 1018.5
20210618195640 69 310 1.0 3.0 0.00 0.00 0.00 63 1018.5
20210618195141 69 108 0.0 1.0 0.00 0.00 0.00 65 1018.6
20210618194641 69 108 0.0 3.0 0.00 0.00 0.00 62 1018.7
20210618194140 70 123 0.0 3.0 0.00 0.00 0.00 61 1018.6
20210618193640 69 113 0.0 2.0 0.00 0.00 0.00 62 1018.7
20210618193141 69 108 0.0 1.0 0.00 0.00 0.00 63 1018.7
20210618192641 69 102 1.0 3.0 0.00 0.00 0.00 62 1018.7
20210618192142 68 143 1.0 2.0 0.00 0.00 0.00 62 1018.7
20210618191640 68 143 0.0 2.0 0.00 0.00 0.00 61 1018.7
20210618191141 69 119 1.0 3.0 0.00 0.00 0.00 60 1018.7
20210618190640 69 129 0.0 3.0 0.00 0.00 0.00 59 1018.6
20210618190140 70 134 0.0 1.0 0.00 0.00 0.00 61 1018.6
20210618185641 70 133 0.0 2.0 0.00 0.00 0.00 60 1018.6
20210618185140 69 162 0.0 1.0 0.00 0.00 0.00 62 1018.8
20210618184639 68 167 0.0 3.0 0.00 0.00 0.00 63 1018.8
20210618184140 68 106 0.0 3.0 0.00 0.00 0.00 64 1018.8
20210618183641 67 101 1.0 3.0 0.00 0.00 0.00 65 1018.8
20210618183141 67 187 0.0 1.0 0.00 0.00 0.00 65 1018.9
20210618182641 67 120 0.0 2.0 0.00 0.00 0.00 65 1018.9
20210618182141 67 127 1.0 3.0 0.00 0.00 0.00 64 1018.9
20210618181641 67 309 0.0 2.0 0.00 0.00 0.00 65 1018.9
20210618181140 67 63 0.0 5.0 0.00 0.00 0.00 68 1019.0
20210618180642 67 143 0.0 1.0 0.00 0.00 0.00 67 1018.9
20210618180140 67 143 0.0 2.0 0.00 0.00 0.00 67 1018.9
20210618175640 66 116 0.0 1.0 0.00 0.00 0.00 68 1018.9
20210618175141 66 116 0.0 2.0 0.00 0.00 0.00 67 1019.0
20210618174641 66 192 1.0 3.0 0.00 0.00 0.00 67 1019.0
20210618174141 66 171 0.0 3.0 0.00 0.00 0.00 67 1019.1
20210618173640 66 166 0.0 2.0 0.00 0.00 0.00 66 1019.1
20210618173140 66 166 0.0 2.0 0.00 0.00 0.00 67 1019.1
20210618172641 66 171 0.0 3.0 0.00 0.00 0.00 68 1019.1
20210618172142 66 202 0.0 2.0 0.00 0.00 0.00 68 1019.3
20210618171641 66 308 0.0 1.0 0.00 0.00 0.00 69 1019.2
20210618171140 65 308 0.0 1.0 0.00 0.00 0.00 68 1019.2
20210618170640 65 308 1.0 3.0 0.00 0.00 0.00 71 1019.3
20210618170143 64 285 0.0 2.0 0.00 0.00 0.00 71 1019.2
20210618165641 64 285 0.0 2.0 0.00 0.00 0.00 71 1019.2
20210618165141 63 303 0.0 1.0 0.00 0.00 0.00 73 1019.2
20210618164642 64 305 0.0 3.0 0.00 0.00 0.00 71 1019.3
20210618164141 64 239 0.0 2.0 0.00 0.00 0.00 72 1019.3
20210618163640 64 253 0.0 1.0 0.00 0.00 0.00 71 1019.3
20210618163142 63 270 0.0 3.0 0.00 0.00 0.00 73 1019.4
20210618162643 63 108 0.0 2.0 0.00 0.00 0.00 74 1019.4
20210618162142 63 108 0.0 1.0 0.00 0.00 0.00 75 1019.4
20210618161644 62 108 0.0 1.0 0.00 0.00 0.00 75 1019.4
20210618161140 62 122 0.0 1.0 0.00 0.00 0.00 75 1019.4
20210618160641 61 189 0.0 2.0 0.00 0.00 0.00 77 1019.3
20210618160140 61 173 0.0 2.0 0.00 0.00 0.00 76 1019.4
20210618155641 61 203 0.0 3.0 0.00 0.00 0.00 75 1019.2
20210618155140 61 264 0.0 2.0 0.00 0.00 0.00 76 1019.3
20210618154640 60 264 0.0 1.0 0.00 0.00 0.00 76 1019.3
20210618154140 60 275 0.0 3.0 0.00 0.00 0.00 76 1019.4
20210618153640 60 253 0.0 3.0 0.00 0.00 0.00 75 1019.3
20210618153140 59 290 0.0 3.0 0.00 0.00 0.00 75 1019.3
20210618152641 59 258 0.0 3.0 0.00 0.00 0.00 78 1019.2
20210618152140 58 173 0.0 2.0 0.00 0.00 0.00 79 1019.3
20210618151640 58 240 0.0 0.0 0.00 0.00 0.00 81 1019.3
20210618151141 57 240 0.0 1.0 0.00 0.00 0.00 81 1019.3
20210618150641 57 240 0.0 1.0 0.00 0.00 0.00 81 1019.2
20210618150141 57 240 0.0 1.0 0.00 0.00 0.00 81 1019.3
20210618145640 56 240 0.0 0.0 0.00 0.00 0.00 83 1019.3
20210618145141 56 240 0.0 1.0 0.00 0.00 0.00 84 1019.4
20210618144641 56 238 1.0 3.0 0.00 0.00 0.00 83 1019.3
20210618144141 55 226 0.0 1.0 0.00 0.00 0.00 84 1019.4
20210618143641 55 275 0.0 2.0 0.00 0.00 0.00 87 1019.3
20210618143141 55 275 0.0 2.0 0.00 0.00 0.00 87 1019.3
20210618142640 54 275 0.0 2.0 0.00 0.00 0.00 88 1019.2
20210618142141 54 275 0.0 2.0 0.00 0.00 0.00 89 1019.1
20210618141641 54 275 0.0 1.0 0.00 0.00 0.00 91 1019.1
20210618141141 53 275 0.0 0.0 0.00 0.00 0.00 91 1019.2
20210618140641 53 275 0.0 1.0 0.00 0.00 0.00 92 1019.2
20210618140140 53 275 0.0 0.0 0.00 0.00 0.00 92 1019.2
20210618135641 53 275 0.0 0.0 0.00 0.00 0.00 92 1019.0
20210618135141 53 275 0.0 0.0 0.00 0.00 0.00 92 1019.0
20210618134640 53 275 0.0 0.0 0.00 0.00 0.00 92 1018.9
20210618134141 53 275 0.0 0.0 0.00 0.00 0.00 91 1019.0
20210618133641 53 275 0.0 0.0 0.00 0.00 0.00 92 1018.9
20210618133141 53 275 0.0 0.0 0.00 0.00 0.00 91 1018.9
20210618132641 52 275 0.0 0.0 0.00 0.00 0.00 91 1018.8
20210618132141 52 275 0.0 0.0 0.00 0.00 0.00 91 1018.8
20210618131641 52 275 0.0 0.0 0.00 0.00 0.00 91 1018.9
20210618131141 53 275 0.0 0.0 0.00 0.00 0.00 91 1018.9
20210618130640 52 275 0.0 0.0 0.00 0.00 0.00 91 1018.9
20210618130141 52 275 0.0 0.0 0.00 0.00 0.00 91 1018.7
20210618125641 52 275 0.0 0.0 0.00 0.00 0.00 91 1018.7
20210618125141 52 275 0.0 0.0 0.00 0.00 0.00 91 1018.6
20210618124641 52 275 0.0 0.0 0.00 0.00 0.00 91 1018.6
20210618124141 52 275 0.0 0.0 0.00 0.00 0.00 91 1018.5
20210618123642 52 275 0.0 0.0 0.00 0.00 0.00 91 1018.6
20210618123142 53 275 0.0 0.0 0.00 0.00 0.00 91 1018.6
20210618122641 53 275 0.0 0.0 0.00 0.00 0.00 91 1018.6
20210618122141 53 275 0.0 0.0 0.00 0.00 0.00 91 1018.6
20210618121642 53 275 0.0 0.0 0.00 0.00 0.00 91 1018.6
20210618121142 53 275 0.0 0.0 0.00 0.00 0.00 90 1018.6
20210618120642 53 275 0.0 0.0 0.00 0.00 0.00 90 1018.5
20210618120141 53 275 0.0 0.0 0.00 0.00 0.00 90 1018.6
20210618115641 53 275 0.0 0.0 0.00 0.00 0.00 90 1018.5
20210618115141 53 275 0.0 0.0 0.00 0.00 0.00 90 1018.5
20210618114641 54 275 0.0 0.0 0.00 0.00 0.00 90 1018.4
20210618114142 54 275 0.0 0.0 0.00 0.00 0.00 90 1018.4
20210618113641 54 275 0.0 0.0 0.00 0.00 0.00 90 1018.3
20210618113141 54 275 0.0 0.0 0.00 0.00 0.00 90 1018.3
20210618112641 54 275 0.0 0.0 0.00 0.00 0.00 89 1018.3
20210618112141 54 275 0.0 0.0 0.00 0.00 0.00 89 1018.3
20210618111641 54 275 0.0 0.0 0.00 0.00 0.00 89 1018.3
20210618111142 54 275 0.0 0.0 0.00 0.00 0.00 89 1018.2
20210618110641 54 275 0.0 0.0 0.00 0.00 0.00 89 1018.1
20210618110141 55 275 0.0 0.0 0.00 0.00 0.00 89 1018.0
20210618105641 55 275 0.0 0.0 0.00 0.00 0.00 89 1018.0
20210618105141 55 275 0.0 0.0 0.00 0.00 0.00 89 1018.0
20210618104641 55 275 0.0 0.0 0.00 0.00 0.00 89 1018.1
20210618104142 55 275 0.0 0.0 0.00 0.00 0.00 89 1018.1
20210618103642 55 275 0.0 0.0 0.00 0.00 0.00 89 1018.0
20210618103141 55 275 0.0 2.0 0.00 0.00 0.00 89 1017.9
20210618102642 55 275 0.0 2.0 0.00 0.00 0.00 89 1018.0
20210618102142 55 275 0.0 0.0 0.00 0.00 0.00 89 1017.9
20210618101642 55 275 0.0 0.0 0.00 0.00 0.00 89 1017.9
20210618101141 55 275 0.0 0.0 0.00 0.00 0.00 89 1017.9
20210618100642 55 275 0.0 1.0 0.00 0.00 0.00 89 1017.9
20210618100142 55 275 0.0 0.0 0.00 0.00 0.00 89 1017.9
20210618095642 55 275 0.0 0.0 0.00 0.00 0.00 89 1018.0
20210618095141 55 275 0.0 1.0 0.00 0.00 0.00 89 1018.0
20210618094641 55 275 0.0 0.0 0.00 0.00 0.00 89 1018.0
20210618094142 55 275 0.0 0.0 0.00 0.00 0.00 88 1018.0
20210618093641 56 275 0.0 0.0 0.00 0.00 0.00 88 1018.0
20210618093141 56 275 0.0 0.0 0.00 0.00 0.00 88 1018.1
20210618092642 56 275 0.0 0.0 0.00 0.00 0.00 88 1018.1
20210618092142 56 275 0.0 1.0 0.00 0.00 0.00 88 1018.2
20210618091642 56 275 0.0 0.0 0.00 0.00 0.00 88 1018.2
20210618091142 56 275 0.0 3.0 0.00 0.00 0.00 88 1018.3
20210618090642 56 194 0.0 1.0 0.00 0.00 0.00 88 1018.3
20210618090142 56 195 0.0 3.0 0.00 0.00 0.00 88 1018.2
20210618085642 56 195 0.0 0.0 0.00 0.00 0.00 88 1018.1
20210618085142 56 195 0.0 1.0 0.00 0.00 0.00 88 1018.1
20210618084643 56 195 0.0 0.0 0.00 0.00 0.00 87 1018.2
20210618084142 56 195 0.0 1.0 0.00 0.00 0.00 87 1018.2
20210618083642 57 195 0.0 1.0 0.00 0.00 0.00 88 1018.3
20210618083142 57 194 0.0 0.0 0.00 0.00 0.00 87 1018.4
20210618082642 57 194 0.0 0.0 0.00 0.00 0.00 87 1018.3
20210618082142 57 194 0.0 0.0 0.00 0.00 0.00 87 1018.4
20210618081641 57 194 0.0 0.0 0.00 0.00 0.00 87 1018.4
20210618081142 57 194 0.0 0.0 0.00 0.00 0.00 86 1018.3
20210618080642 57 194 0.0 1.0 0.00 0.00 0.00 86 1018.4
20210618080142 57 204 0.0 1.0 0.00 0.00 0.00 86 1018.5
20210618075642 57 204 0.0 0.0 0.00 0.00 0.00 86 1018.5
20210618075142 57 204 0.0 1.0 0.00 0.00 0.00 86 1018.4
20210618074642 57 204 0.0 0.0 0.00 0.00 0.00 85 1018.4
20210618074143 57 204 0.0 1.0 0.00 0.00 0.00 85 1018.3
20210618073642 57 204 0.0 1.0 0.00 0.00 0.00 84 1018.4
20210618073142 57 204 0.0 0.0 0.00 0.00 0.00 84 1018.4
20210618072642 57 204 0.0 0.0 0.00 0.00 0.00 83 1018.4
20210618072142 57 204 0.0 2.0 0.00 0.00 0.00 82 1018.4
20210618071642 57 204 1.0 3.0 0.00 0.00 0.00 81 1018.4
20210618071142 57 297 0.0 0.0 0.00 0.00 0.00 81 1018.3
20210618070643 57 297 0.0 0.0 0.00 0.00 0.00 81 1018.3
20210618070142 58 297 0.0 0.0 0.00 0.00 0.00 81 1018.3
20210618065642 58 297 0.0 0.0 0.00 0.00 0.00 80 1018.3
20210618065143 58 297 0.0 1.0 0.00 0.00 0.00 79 1018.3
20210618064642 58 297 0.0 1.0 0.00 0.00 0.00 79 1018.4
20210618064143 58 297 0.0 0.0 0.00 0.00 0.00 79 1018.4
20210618063642 58 297 0.0 2.0 0.00 0.00 0.00 78 1018.4
20210618063143 58 279 0.0 0.0 0.00 0.00 0.00 78 1018.4
20210618062643 58 279 0.0 2.0 0.00 0.00 0.00 77 1018.3
20210618062143 59 311 0.0 0.0 0.00 0.00 0.00 77 1018.3
20210618061642 59 311 0.0 0.0 0.00 0.00 0.00 77 1018.4
20210618061143 59 311 0.0 1.0 0.00 0.00 0.00 77 1018.4
20210618060642 59 311 0.0 0.0 0.00 0.00 0.00 78 1018.4
20210618060143 59 311 0.0 1.0 0.00 0.00 0.00 77 1018.3
20210618055643 59 311 0.0 0.0 0.00 0.00 0.00 77 1018.3
20210618055143 59 311 0.0 0.0 0.00 0.00 0.00 77 1018.1
20210618054643 59 311 0.0 3.0 0.00 0.00 0.00 77 1018.2
20210618054143 59 44 0.0 0.0 0.00 0.00 0.00 76 1018.2
20210618053643 59 44 0.0 0.0 0.00 0.00 0.00 75 1018.2
20210618053142 60 44 0.0 0.0 0.00 0.00 0.00 75 1018.1
20210618052642 60 44 0.0 0.0 0.00 0.00 0.00 74 1018.1
20210618052142 60 44 0.0 1.0 0.00 0.00 0.00 74 1018.1
20210618051642 60 44 0.0 0.0 0.00 0.00 0.00 74 1018.1
20210618051142 60 44 0.0 0.0 0.00 0.00 0.00 72 1018.1
20210618050643 60 44 0.0 0.0 0.00 0.00 0.00 71 1018.1
20210618050143 60 44 0.0 0.0 0.00 0.00 0.00 71 1018.0
20210618045643 60 44 0.0 0.0 0.00 0.00 0.00 70 1018.0
20210618045143 61 44 0.0 0.0 0.00 0.00 0.00 71 1018.0
20210618044642 61 44 0.0 1.0 0.00 0.00 0.00 69 1017.9
20210618044143 61 44 0.0 0.0 0.00 0.00 0.00 69 1017.9
20210618043642 62 44 0.0 0.0 0.00 0.00 0.00 70 1017.8
20210618043143 62 44 0.0 0.0 0.00 0.00 0.00 67 1017.8
20210618042643 62 44 0.0 0.0 0.00 0.00 0.00 66 1017.7
20210618042142 63 44 0.0 0.0 0.00 0.00 0.00 66 1017.7
20210618041643 63 44 0.0 0.0 0.00 0.00 0.00 66 1017.7
20210618041142 63 44 0.0 0.0 0.00 0.00 0.00 66 1017.8
20210618040643 64 44 0.0 1.0 0.00 0.00 0.00 67 1017.7
20210618040143 64 44 0.0 1.0 0.00 0.00 0.00 64 1017.7